Regional Weather Roundup
Issued by NWS

Home | Current Version | Previous Version | Text Only | Print | Product List | Glossary On
Versions: 1 2 3 4 5 6 7 8 9 10 11 12 13 14 15 16 17 18 19 20 21 22 23 24 25 26 27 28 29 30 31 32 33 34 35 36 37 38 39 40 41 42 43 44 45 46 47 48 49 50
000
ASUS42 KFFC 202310
RWRGA
WEATHER ROUNDUP FOR GEORGIA
NATIONAL WEATHER SERVICE PEACHTREE CITY GA
600 PM EST MON NOV 20 2017

NOTE: "FAIR" INDICATES FEW OR NO CLOUDS BELOW 12,000 FEET WITH NO
SIGNIFICANT WEATHER AND/OR OBSTRUCTIONS TO VISIBILITY.

* = USE WITH CAUTION. THE STATIONS MARKED WITH AN ASTERISK MAY NOT
REPORT WEATHER SUCH AS PRECIPITATION, FOG, OR THUNDER AND ARE NOT
QUALITY CONTROLLED BY NWS.

THE REMARK "TC" DENOTES TEMPERATURE READING IN DEGREES CELSIUS.

GAZ001>058-210000-
NORTH GEORGIA

CITY           SKY/WX    TMP DP  RH WIND       PRES   REMARKS
ATLANTA        CLOUDY    51  35  54 E8        30.14F
ATHENS         CLOUDY    44  37  76 E5        30.18S
CHAMBLEE       CLOUDY    50  32  50 SE3       30.15F
PEACHTREE CITY CLEAR     47  40  76 CALM      30.15F
ROME           CLOUDY    49  37  63 CALM      30.13F
WEST ATLANTA   PTCLDY    55  32  41 E6        30.14F
GAINESVILLE    CLOUDY    50  31  48 CALM      30.18S
CARTERSVILLE   CLOUDY    43  39  86 SE3       30.14F


CITY           SKY/WX    TMP DP  RH WIND       PRES   REMARKS
DALTON*        CLOUDY    46  34  61 CALM      30.16S
LAWRENCEVILLE* CLOUDY    50  33  52 E3        30.17F
MARIETTA       CLEAR     51  31  46 SE3       30.14S
KENNESAW*      CLOUDY    53  30  41 E6        30.15F
CANTON*        CLOUDY    54  30  40 CALM      30.16S
$$

GAZ059>098-102>109-210000-
CENTRAL GEORGIA

CITY           SKY/WX    TMP DP  RH WIND       PRES   REMARKS
AUGUSTA-BUSH   PTCLDY    49  34  56 SE3       30.21R
AUGUSTA-DANIEL CLEAR     56  30  37 E5        30.21S
COLUMBUS       PTCLDY    57  36  45 SE6       30.14R
MACON          PTCLDY    53  37  54 E6        30.17F
ROBINS AFB     CLEAR     51  39  63 E3        30.16F


CITY           SKY/WX    TMP DP  RH WIND       PRES   REMARKS
LAGRANGE*      PTCLDY    51  40  64 CALM      30.14R
SYLVANIA*      CLEAR     51  41  67 CALM      30.24R
MILLEDGEVILLE* PTCLDY    50  41  71 CALM      30.19S
$$

GAZ099>101-110>166-210000-
SOUTH GEORGIA

CITY           SKY/WX    TMP DP  RH WIND       PRES   REMARKS
SAVANNAH       PTCLDY    54  39  57 E6        30.23S
VALDOSTA       PTCLDY    61  51  70 CALM      30.14S
ALMA           MOCLDY    63  51  65 E6        30.17R
ST SIMONS      CLOUDY    62  53  72 NE10      30.18S
FT STEWART     PTCLDY    53  46  75 E6        30.20R
ALBANY         PTCLDY    58  41  53 CALM      30.13F
HUNTER AFB     PTCLDY    54  41  61 NE5       30.20S
MOODY AFB      MOCLDY    61  51  69 NE5       30.13S
BRUNSWICK      PTCLDY    59  50  72 NE9       30.19S


CITY           SKY/WX    TMP DP  RH WIND       PRES   REMARKS
BAINBRIDGE*    CLEAR     59  43  55 CALM      30.14S
MOULTRIE*      PTCLDY    57  48  72 CALM      30.15F
VIDALIA*       CLEAR     54  41  62 E5        30.20S
WAYCROSS*      CLOUDY    63  49  61 SE9       30.18R
DOUGLAS*       MOCLDY    61  46  59 E5        30.18S
$$




USA.gov is the U.S. government's official web portal to all federal, state and local government web resources and services.